�������l�o���
Date,Time,MP-1(��Sv/h),MP-2(��Sv/h),MP-3(��Sv/h),MP-4(��Sv/h),MP-5(��Sv/h),MP-6(��Sv/h),MP-7(��Sv/h),MP-8(��Sv/h),����,����(m/s),���J
2023/03/10,00:00,0.579,0.847,0.510,1.072,0.747,0.330,0.591,0.557,�k,3.0,��
2023/03/10,00:10,0.578,0.845,0.509,1.069,0.746,0.328,0.591,0.556,�k,3.3,��
2023/03/10,00:20,0.579,0.846,0.510,1.069,0.747,0.329,0.589,0.557,�k�k��,3.1,��
2023/03/10,00:30,0.580,0.846,0.509,1.070,0.746,0.329,0.590,0.558,�k�k��,2.3,��
2023/03/10,00:40,0.579,0.844,0.509,1.069,0.747,0.328,0.591,0.558,���k��,2.0,��
2023/03/10,00:50,0.576,0.847,0.510,1.068,0.748,0.329,0.589,0.559,�k��,1.5,��
2023/03/10,01:00,0.579,0.846,0.509,1.072,0.746,0.328,0.589,0.558,�k�k��,1.5,��
2023/03/10,01:10,0.579,0.846,0.508,1.070,0.745,0.329,0.589,0.559,�k�k��,1.2,��
2023/03/10,01:20,0.579,0.845,0.511,1.071,0.748,0.328,0.590,0.559,���쓌,0.6,��
2023/03/10,01:30,0.582,0.844,0.507,1.070,0.749,0.327,0.589,0.558,���쓌,0.8,��
2023/03/10,01:40,0.578,0.845,0.510,1.070,0.750,0.330,0.590,0.558,�쓌,1.2,��
2023/03/10,01:50,0.579,0.845,0.508,1.072,0.746,0.328,0.590,0.558,��쓌,1.2,��
2023/03/10,02:00,0.579,0.845,0.510,1.069,0.745,0.328,0.590,0.557,���쐼,1.2,��
2023/03/10,02:10,0.579,0.847,0.509,1.069,0.745,0.328,0.589,0.559,��,2.0,��
2023/03/10,02:20,0.579,0.846,0.510,1.069,0.746,0.328,0.590,0.559,��,2.9,��
2023/03/10,02:30,0.579,0.844,0.509,1.072,0.747,0.329,0.591,0.558,��,3.4,��
2023/03/10,02:40,0.578,0.847,0.509,1.070,0.747,0.329,0.591,0.559,��쐼,2.6,��
2023/03/10,02:50,0.579,0.845,0.509,1.069,0.747,0.328,0.591,0.559,��,3.9,��
2023/03/10,03:00,0.579,0.844,0.509,1.071,0.745,0.327,0.591,0.558,��,4.4,��
2023/03/10,03:10,0.579,0.846,0.509,1.069,0.747,0.328,0.591,0.559,��쓌,5.8,��
2023/03/10,03:20,0.581,0.846,0.509,1.071,0.748,0.328,0.590,0.557,��,3.7,��
2023/03/10,03:30,0.578,0.846,0.509,1.069,0.747,0.329,0.591,0.559,��쐼,2.3,��
2023/03/10,03:40,0.580,0.844,0.508,1.070,0.746,0.329,0.589,0.558,��,1.5,��
2023/03/10,03:50,0.580,0.846,0.508,1.071,0.746,0.328,0.590,0.559,��,2.0,��
2023/03/10,04:00,0.579,0.845,0.509,1.069,0.748,0.329,0.592,0.559,���쐼,0.6,��
2023/03/10,04:10,0.579,0.846,0.509,1.069,0.747,0.329,0.590,0.558,���쐼,0.8,��
2023/03/10,04:20,0.580,0.846,0.509,1.071,0.746,0.330,0.591,0.558,���k��,1.4,��
2023/03/10,04:30,0.580,0.846,0.510,1.071,0.747,0.328,0.590,0.558,-,CALM,��
2023/03/10,04:40,0.580,0.848,0.510,1.071,0.746,0.329,0.590,0.560,���k��,0.6,��
2023/03/10,04:50,0.581,0.845,0.508,1.071,0.746,0.329,0.592,0.561,�k��,0.6,��
2023/03/10,05:00,0.579,0.846,0.509,1.070,0.744,0.329,0.590,0.559,-,CALM,��
2023/03/10,05:10,0.579,0.845,0.509,1.069,0.748,0.327,0.592,0.558,�쐼,1.2,��
2023/03/10,05:20,0.580,0.846,0.509,1.070,0.747,0.329,0.590,0.558,��,1.5,��
2023/03/10,05:30,0.579,0.846,0.511,1.071,0.745,0.326,0.589,0.559,��,1.7,��
2023/03/10,05:40,0.579,0.844,0.509,1.071,0.746,0.329,0.590,0.558,��쓌,0.6,��
2023/03/10,05:50,0.577,0.845,0.510,1.070,0.744,0.329,0.591,0.559,��쓌,0.6,��
2023/03/10,06:00,0.578,0.846,0.508,1.069,0.746,0.328,0.590,0.558,��쓌,1.7,��
2023/03/10,06:10,0.580,0.845,0.509,1.069,0.748,0.329,0.591,0.559,�쓌,1.2,��
2023/03/10,06:20,0.579,0.845,0.508,1.070,0.745,0.328,0.591,0.558,��쓌,2.3,��
2023/03/10,06:30,0.580,0.843,0.509,1.070,0.747,0.327,0.591,0.558,��,3.1,��
2023/03/10,06:40,0.579,0.843,0.509,1.068,0.746,0.329,0.591,0.558,��쓌,3.8,��
2023/03/10,06:50,0.578,0.844,0.508,1.069,0.746,0.329,0.589,0.559,��,2.2,��
2023/03/10,07:00,0.578,0.845,0.509,1.070,0.747,0.329,0.590,0.558,�쐼,3.8,��
2023/03/10,07:10,0.580,0.843,0.509,1.068,0.745,0.328,0.589,0.559,��쐼,5.2,��
2023/03/10,07:20,0.579,0.845,0.509,1.067,0.746,0.328,0.591,0.559,�쐼,5.6,��
2023/03/10,07:30,0.580,0.845,0.510,1.069,0.745,0.329,0.591,0.558,���쐼,7.8,��
2023/03/10,07:40,0.580,0.846,0.508,1.069,0.747,0.329,0.591,0.560,���쐼,6.2,��
2023/03/10,07:50,0.578,0.844,0.509,1.072,0.747,0.328,0.590,0.561,���쐼,4.8,��
2023/03/10,08:00,0.579,0.846,0.508,1.072,0.745,0.328,0.590,0.561,��,2.5,��
2023/03/10,08:10,0.580,0.845,0.509,1.071,0.745,0.328,0.591,0.559,�k��,6.8,��
2023/03/10,08:20,0.579,0.845,0.509,1.070,0.745,0.328,0.590,0.560,�k��,5.7,��
2023/03/10,08:30,0.581,0.845,0.509,1.071,0.745,0.328,0.589,0.561,���k��,7.6,��
2023/03/10,08:40,0.580,0.845,0.509,1.072,0.744,0.328,0.591,0.561,�k��,9.3,��
2023/03/10,08:50,0.580,0.847,0.511,1.071,0.746,0.327,0.590,0.560,�k��,7.9,��
2023/03/10,09:00,0.581,0.846,0.509,1.069,0.745,0.328,0.589,0.560,���k��,5.4,��
2023/03/10,09:10,0.580,0.843,0.507,1.068,0.744,0.329,0.589,0.561,�쐼,1.4,��
2023/03/10,09:20,0.580,0.845,0.510,1.070,0.746,0.328,0.591,0.560,��,1.2,��
2023/03/10,09:30,0.580,0.844,0.508,1.068,0.749,0.328,0.590,0.560,���쐼,0.9,��
2023/03/10,09:40,0.582,0.844,0.509,1.071,0.747,0.328,0.590,0.560,��쐼,1.4,��
2023/03/10,09:50,0.582,0.845,0.510,1.070,0.744,0.328,0.590,0.559,��쐼,1.9,��
2023/03/10,10:00,0.582,0.841,0.510,1.068,0.745,0.328,0.589,0.562,��쐼,2.2,��
2023/03/10,10:10,0.580,0.840,0.510,1.068,0.748,0.329,0.588,0.560,���쐼,2.9,��
2023/03/10,10:20,0.583,0.846,0.509,1.070,0.748,0.327,0.589,0.559,�쐼,3.3,��
2023/03/10,10:30,0.582,0.845,0.509,1.068,0.747,0.327,0.588,0.558,��쐼,2.9,��
2023/03/10,10:40,0.581,0.845,0.507,1.072,0.745,0.327,0.590,0.560,��,2.6,��
2023/03/10,10:50,0.581,0.843,0.508,1.070,0.747,0.328,0.590,0.560,��,3.0,��
2023/03/10,11:00,0.579,0.843,0.503,1.070,0.746,0.326,0.589,0.558,��쓌,4.3,��
2023/03/10,11:10,0.579,0.844,0.507,1.072,0.745,0.325,0.590,0.559,��쓌,5.9,��
2023/03/10,11:20,0.580,0.845,0.504,1.069,0.745,0.320,0.589,0.560,��,5.7,��
2023/03/10,11:30,0.579,0.846,0.503,1.069,0.744,0.322,0.591,0.558,��쐼,2.9,��
2023/03/10,11:40,0.581,0.845,0.506,1.074,0.745,0.323,0.589,0.559,��,2.2,��
2023/03/10,11:50,0.580,0.845,0.506,1.073,0.744,0.328,0.590,0.557,���k��,1.9,��
2023/03/10,12:00,0.580,0.844,0.505,1.072,0.747,0.328,0.590,0.559,��,5.0,��
2023/03/10,12:10,0.580,0.847,0.506,1.072,0.748,0.329,0.591,0.560,���k��,7.1,��
2023/03/10,12:20,0.580,0.847,0.504,1.074,0.747,0.328,0.591,0.559,��,8.8,��
2023/03/10,12:30,0.580,0.845,0.504,1.073,0.744,0.328,0.590,0.559,��,9.5,��
2023/03/10,12:40,0.582,0.843,0.506,1.074,0.747,0.328,0.593,0.557,��,7.3,��
2023/03/10,12:50,0.581,0.845,0.504,1.073,0.745,0.329,0.591,0.559,��,5.6,��
2023/03/10,13:00,0.581,0.843,0.504,1.070,0.745,0.328,0.590,0.559,���k��,7.1,��
2023/03/10,13:10,0.581,0.844,0.507,1.072,0.747,0.328,0.591,0.560,���쐼,9.3,��
2023/03/10,13:20,0.580,0.844,0.506,1.074,0.747,0.328,0.592,0.560,��,9.9,�L
2023/03/10,13:30,0.581,0.845,0.507,1.072,0.747,0.327,0.591,0.559,��,8.9,��
2023/03/10,13:40,0.581,0.842,0.508,1.074,0.746,0.329,0.593,0.559,��,8.3,��
2023/03/10,13:50,0.579,0.846,0.505,1.073,0.746,0.327,0.591,0.559,���쐼,10.9,��
2023/03/10,14:00,0.581,0.843,0.508,1.073,0.746,0.326,0.592,0.557,���쐼,10.3,��
2023/03/10,14:10,0.582,0.843,0.509,1.073,0.746,0.327,0.591,0.560,���쐼,9.0,��
2023/03/10,14:20,0.580,0.844,0.509,1.073,0.745,0.328,0.589,0.559,���k��,8.0,��
2023/03/10,14:30,0.581,0.845,0.509,1.070,0.747,0.327,0.592,0.561,��,7.7,��
2023/03/10,14:40,0.579,0.845,0.507,1.071,0.746,0.326,0.592,0.560,��,7.2,��
2023/03/10,14:50,0.581,0.846,0.510,1.073,0.746,0.327,0.591,0.560,���쐼,7.6,��
2023/03/10,15:00,0.580,0.847,0.510,1.073,0.747,0.328,0.591,0.559,���k��,4.1,��
2023/03/10,15:10,0.581,0.845,0.507,1.071,0.747,0.327,0.592,0.559,��,5.6,��
2023/03/10,15:20,0.580,0.845,0.508,1.075,0.747,0.327,0.591,0.560,���쐼,6.9,��
2023/03/10,15:30,0.583,0.844,0.507,1.074,0.746,0.326,0.589,0.562,��,9.0,��
2023/03/10,15:40,0.580,0.846,0.509,1.074,0.747,0.328,0.590,0.559,���k��,7.8,��
2023/03/10,15:50,0.581,0.846,0.510,1.075,0.746,0.328,0.591,0.560,���k��,7.2,��
2023/03/10,16:00,0.580,0.846,0.511,1.076,0.747,0.328,0.590,0.561,�k��,8.7,��
2023/03/10,16:10,0.580,0.845,0.509,1.073,0.746,0.327,0.590,0.560,���k��,6.7,��
2023/03/10,16:20,0.582,0.844,0.509,1.075,0.746,0.328,0.591,0.560,���k��,5.2,��
2023/03/10,16:30,0.581,0.846,0.510,1.072,0.746,0.329,0.591,0.560,��,4.8,��
2023/03/10,16:40,0.579,0.846,0.510,1.074,0.745,0.329,0.591,0.561,���쐼,5.8,��
2023/03/10,16:50,0.581,0.845,0.507,1.074,0.747,0.330,0.591,0.560,��,7.5,��
2023/03/10,17:00,0.580,0.847,0.510,1.074,0.747,0.327,0.590,0.560,��,6.5,��
2023/03/10,17:10,0.580,0.844,0.508,1.073,0.746,0.329,0.589,0.560,��,8.2,��
2023/03/10,17:20,0.579,0.846,0.508,1.073,0.745,0.329,0.590,0.559,��,8.3,��
2023/03/10,17:30,0.579,0.846,0.509,1.075,0.745,0.329,0.590,0.560,��,7.3,��
2023/03/10,17:40,0.580,0.848,0.508,1.073,0.747,0.330,0.589,0.560,��,6.6,��
2023/03/10,17:50,0.581,0.849,0.511,1.074,0.745,0.329,0.591,0.562,��,8.3,��
2023/03/10,18:00,0.581,0.848,0.511,1.074,0.746,0.330,0.589,0.563,��,8.0,��
2023/03/10,18:10,0.581,0.849,0.512,1.075,0.746,0.329,0.590,0.560,��,8.2,��
2023/03/10,18:20,0.584,0.846,0.509,1.074,0.748,0.330,0.590,0.561,��,6.2,��
2023/03/10,18:30,0.582,0.848,0.511,1.074,0.748,0.329,0.590,0.562,���k��,7.0,��
2023/03/10,18:40,0.581,0.849,0.511,1.072,0.747,0.328,0.590,0.563,��,5.2,��
2023/03/10,18:50,0.581,0.847,0.510,1.074,0.748,0.328,0.590,0.562,���k��,5.5,��
2023/03/10,19:00,0.581,0.848,0.512,1.074,0.749,0.328,0.588,0.562,���k��,5.6,��
2023/03/10,19:10,0.581,0.848,0.510,1.073,0.748,0.328,0.591,0.560,�k��,5.8,��
2023/03/10,19:20,0.579,0.845,0.512,1.074,0.747,0.328,0.589,0.561,�k��,4.7,��
2023/03/10,19:30,0.580,0.847,0.509,1.073,0.747,0.327,0.591,0.561,�k�k��,5.6,��
2023/03/10,19:40,0.582,0.845,0.510,1.074,0.748,0.329,0.591,0.560,�k,4.1,��
2023/03/10,19:50,0.580,0.848,0.510,1.077,0.747,0.328,0.591,0.561,�k�k��,5.0,��
2023/03/10,20:00,0.579,0.847,0.509,1.073,0.746,0.328,0.591,0.560,�k�k��,6.2,��
2023/03/10,20:10,0.579,0.848,0.509,1.073,0.747,0.328,0.591,0.560,�k�k��,6.4,��
2023/03/10,20:20,0.580,0.845,0.509,1.074,0.748,0.327,0.591,0.560,�k�k��,5.1,��
2023/03/10,20:30,0.579,0.845,0.509,1.072,0.749,0.327,0.591,0.561,�k�k��,4.4,��
2023/03/10,20:40,0.580,0.848,0.510,1.072,0.747,0.327,0.591,0.561,�k�k��,3.6,��
2023/03/10,20:50,0.578,0.846,0.509,1.074,0.748,0.327,0.593,0.560,�k��,3.9,��
2023/03/10,21:00,0.579,0.845,0.507,1.073,0.745,0.325,0.591,0.560,�k��,3.6,��
2023/03/10,21:10,0.580,0.846,0.511,1.074,0.748,0.328,0.591,0.560,�k��,3.5,��
2023/03/10,21:20,0.578,0.847,0.509,1.069,0.747,0.328,0.591,0.561,�k��,3.2,��
2023/03/10,21:30,0.579,0.847,0.509,1.072,0.747,0.326,0.592,0.560,�k��,0.6,��
2023/03/10,21:40,0.578,0.845,0.508,1.072,0.747,0.327,0.591,0.559,���k��,1.5,��
2023/03/10,21:50,0.578,0.846,0.508,1.072,0.747,0.327,0.591,0.559,���k��,1.1,��
2023/03/10,22:00,0.579,0.847,0.511,1.072,0.748,0.326,0.590,0.559,�k�k��,1.5,��
2023/03/10,22:10,0.579,0.846,0.509,1.072,0.747,0.327,0.590,0.560,�k��,1.8,��
2023/03/10,22:20,0.578,0.846,0.508,1.073,0.747,0.326,0.591,0.559,���k��,2.6,��
2023/03/10,22:30,0.576,0.846,0.508,1.072,0.746,0.327,0.591,0.559,���k��,3.3,��
2023/03/10,22:40,0.579,0.847,0.508,1.073,0.747,0.328,0.591,0.558,��,3.8,��
2023/03/10,22:50,0.577,0.845,0.507,1.071,0.746,0.327,0.591,0.559,���k��,4.6,��
2023/03/10,23:00,0.579,0.844,0.508,1.070,0.746,0.326,0.590,0.559,���k��,5.0,��
2023/03/10,23:10,0.578,0.847,0.508,1.070,0.747,0.328,0.590,0.557,���k��,3.8,��
2023/03/10,23:20,0.578,0.845,0.508,1.071,0.746,0.327,0.591,0.559,���k��,3.0,��
2023/03/10,23:30,0.576,0.845,0.508,1.073,0.745,0.326,0.589,0.559,���k��,3.5,��
2023/03/10,23:40,0.579,0.846,0.507,1.071,0.747,0.326,0.590,0.559,���k��,4.6,��
2023/03/10,23:50,0.579,0.847,0.508,1.070,0.748,0.326,0.590,0.559,���k��,3.6,��
